This is the latest recevied weather packets stored in our database for station/object WMKK. If no packets are shown the sender has not sent any weather packets the latest 10 day(s).
| Time | Temp. | Humidity | Pressure | Rain* | Wind** | Luminosity | Snow |
|---|---|---|---|---|---|---|---|
| 1777988402 | 27.78° C | 83% | 1007 hPa | - | - | - | - |
| 1777986631 | 27.78° C | 88% | 1007 hPa | - | - | - | - |
| 1777984802 | 28.89° C | 83% | 1007 hPa | - | - | - | - |
| 1777983020 | 28.89° C | 83% | 1006 hPa | - | - | - | - |
| 1777981203 | 28.89° C | 83% | 1006 hPa | - | - | - | - |
| 1777979423 | 28.89° C | 83% | 1006 hPa | - | - | - | - |
| 1777975823 | 30° C | 79% | 1005 hPa | - | - | - | - |
| 1777974002 | 30° C | 79% | 1005 hPa | - | - | - | - |
| 1777972226 | 30.56° C | 74% | 1005 hPa | - | - | - | - |
| 1777970402 | 30.56° C | 70% | 1005 hPa | - | - | - | - |
| 1777968620 | 30.56° C | 70% | 1005 hPa | - | - | - | - |
| 1777966802 | 30° C | 84% | 1006 hPa | - | - | - | - |
| 1777965599 | 28.89° C | 88% | 1006 hPa | - | - | - | - |
| 1777963209 | 30° C | 79% | 1006 hPa | - | - | - | - |
| 1777961423 | 31.67° C | 70% | 1007 hPa | - | - | - | - |
| 1777959602 | 32.78° C | 66% | 1007 hPa | - | - | - | - |
| 1777957826 | 31.67° C | 70% | 1008 hPa | - | - | - | - |
| 1777956002 | 31.67° C | 66% | 1008 hPa | - | - | - | - |
| 1777954219 | 31.67° C | 70% | 1009 hPa | - | - | - | - |
| 1777943419 | 27.78° C | 83% | 1009 hPa | - | - | - | - |
| 1777939827 | 25.56° C | 94% | 1008 hPa | - | - | - | - |
| 1777938002 | 25° C | 94% | 1008 hPa | - | - | - | - |
| 1777934408 | 25° C | 94% | 1008 hPa | - | - | - | - |
| 1777929019 | 25° C | 10% | - | - | - | - | - |
| 1777920004 | 25.56° C | 94% | 1008 hPa | - | - | - | - |
* Rain since midnight (hover to see other rain measurements)
** Current wind speed in m/s (hover to see current wind gust speed)